User: anonymous   Login
Location: Ammerl�gen
(47.2167°N, 9.6000°E)
Time: 09:28:23
(UTC+00:00)
Language:

Iridium 4 Rocket - Orbit

View from above orbital plane
View from above orbital plane
View from above satellite
View from above satellite

Ground track
Ground track

The orbit data is extracted from the following two-line orbital elements,

1 24797U 97020F   21164.67475972  .00000111  00000-0  17385-4 0  9999
2 24797  86.8980 179.5570 0226424 136.5144 289.9000 14.44251495268258
Epoch (UTC): 13 June 2021 16:11:39
Eccentricity: 0.0226424
inclination: 86.8980°
perigee height: 583 km
apogee height: 906 km
right ascension of ascending node: 179.5570°
argument of perigee: 136.5144°
revolutions per day: 14.44251495
mean anomaly at epoch: 289.9000°
orbit number at epoch: 26825

The dashed part of the orbit path shows where the satellite is in the earth's shadow,  

DLR